www.pogodaiklimat.ru

Погода и климат >> Архив погоды >> Россия >> Псковская область >> Гдов


ПОГОДА в Гдове

  • Прогноз погоды в Гдове
  • Монитор погоды в Гдове

АРХИВ ПОГОДЫ в Гдове

Время (UTC), дата Ветер
(напр.,м/с)
 
Видим.   Явления Облачность Т
(С)
Тd
(С)
f
(%)
Тe
(С)
Тes
(С)
Комфортность P
(гПа)
Po
(гПа)
Тmin
(С)
Tmax
(С)
R
(мм)
R24
(мм)
S
(см)
15 14.08 З 3 20 км {ливн. осадки} 10/3 600 м
[Cu med, cong Ci sp]
+17.7 +13.0 74 +18 +19 1010.9 1006.1 1
18 14.08 З 3 20 км {ливн. осадки} 9/6 1000 м
[Sc Ac trans Ci fib]
+16.9 +10.0 64 +17 +17 1010.8 1006.0 +20.9 1
21 14.08 З 4 20 км 8/5 1000 м
[Sc Ac trans Ci fib]
+16.0 +10.7 71 +15 +15 1010.3 1005.5
00 15.08 З 3 20 км 8/5 1000 м
[Sc Ac trans Ci fib]
+14.9 +11.5 80 +14 +14 1010.3 1005.5
03 15.08 З 2 20 км 3/3 600 м
[Cu Sc]
+13.7 +11.9 89 +13 +13 1010.1 1005.3 +13.6
06 15.08 ЮЗ 4 20 км 3/1 600 м
[Cu med, cong Ci fib]
+16.4 +13.2 81 +16 +18 1010.5 1005.7 +13.6
09 15.08 ЮЗ 6 20 км 8/4 600 м
[Cb calv Ac trans]
+19.1 +12.6 66 +20 +21 1010.5 1005.7
12 15.08 ЮЗ 5
{11}
20 км 8/5 600 м
[Cb calv Ac trans]
+17.3 +12.0 71 +17 +18 1011.3 1006.5
15 15.08 ЮЗ 5
{10}
20 км 8/4 600 м
[Cb calv Ac trans]
+17.3 +12.0 71 +17 +17 1012.3 1007.5
18 15.08 ЮЗ 3 20 км 8/8 600 м
[Sc]
+15.7 +11.7 77 +15 +15 1013.4 1008.6 +19.8
21 15.08 З 3 20 км 1/0
[Ci fib]
+15.0 +12.1 83 +14 +14 1014.6 1009.8
00 16.08 З 2 20 км 1/1 300 м
[St]
+14.0 +12.6 91 +13 +13 1015.5 1010.6
03 16.08 штиль 0 10 км туман поземный ясно +7.4 +7.4 100 +6 +6 1016.3 1011.3 +7.2
06 16.08 ЮЗ 3 20 км 4/3 300 м
[St Ac trans Ci fib]
+16.5 +13.4 82 +16 +18 1017.0 1012.2 +7.2
09 16.08 ЮЗ 2 20 км 3/1 600 м
[Cu med, cong Ci fib]
+18.1 +12.5 70 +19 +27 1017.2 1012.4
12 16.08 З 2 20 км 1/1 600 м
[Cu hum]
+20.4 +9.5 50 +22 +31 комфорт 1017.1 1012.3
15 16.08 Ю 2 20 км 1/1 600 м
[Cu Sc]
+20.6 +10.3 52 +23 +25 комфорт 1016.8 1012.0
18 16.08 штиль 0 20 км туман поземный 3/0
[Ci fib]
+13.3 +12.5 95 +13 +13 1017.3 1012.4 +21.1
21 16.08 В 1 10 км туман поземный 3/0
[Ci fib]
+9.7 +9.7 100 +9 +9 1017.6 1012.6
00 17.08 В 1 20 км 3/0
[Ci fib]
+8.9 +8.4 97 +8 +8 1018.4 1013.4
03 17.08 ЮВ 2 20 км 3/0
[Ci fib]
+8.7 +7.4 92 +7 +7 1018.1 1013.1 +8.4
06 17.08 Ю 3 20 км ясно +17.5 +10.4 63 +18 +21 1018.3 1013.5 +8.4
09 17.08 Ю 3 20 км ясно +21.7 +11.7 53 +24 +32 комфорт 1018.1 1013.3
12 17.08 ЮЗ 2 20 км 1/1 1000 м
[Cu med, cong]
+23.1 +11.3 47 +25 +33 комфорт 1017.2 1012.5
15 17.08 ЮЗ 2 20 км 1/1 1000 м
[Cu med, cong]
+22.3 +10.0 46 +24 +26 комфорт 1016.3 1011.6
18 17.08 В 1 20 км ясно +15.4 +12.7 84 +16 +16 1016.4 1011.6 +23.3
21 17.08 ЮВ 2 20 км ясно +10.9 +9.6 92 +9 +9 1016.4 1011.5
00 18.08 В 1 20 км ясно +9.2 +8.3 94 +8 +8 1016.4 1011.4
03 18.08 В 1 10 км туман поземный ясно +8.3 +8.0 98 +7 +7 1015.6 1010.6 +7.2
06 18.08 В 3 20 км 1/0
[Ci fib]
+16.9 +10.8 67 +17 +20 1014.8 1010.0 +7.2
09 18.08 ЮВ 2 20 км 3/1 600 м
[Cu med, cong Ci fib]
+22.2 +9.4 44 +24 +32 комфорт 1013.9 1009.2
12 18.08 З 2 20 км 6/4 600 м
[Cu med, cong Ci fib]
+22.6 +11.5 49 +25 +30 комфорт 1013.0 1008.3
15 18.08 СЗ 2 20 км 1/1 600 м
[Cu med, cong]
+21.7 +11.8 53 +24 +26 комфорт 1012.8 1008.1
18 18.08 В 1 20 км 8/0
[Ci fib]
+13.8 +13.0 95 +14 +14 1013.0 1008.1 +22.9
21 18.08 ЮВ 2 20 км 3/0
[Ci fib]
+11.1 +11.1 100 +10 +10 1012.4 1007.5
00 19.08 ЮВ 3 20 км 3/0
[Ci fib]
+12.6 +11.8 95 +11 +11 1012.2 1007.3
03 19.08 ЮВ 3 20 км 5/0
[Ci fib]
+13.2 +11.8 91 +12 +12 1011.2 1006.3 +10.8
06 19.08 ЮВ 5 20 км 8/4 1000 м
[Sc Ac trans]
+18.0 +12.7 71 +18 +18 1009.8 1005.0 +10.8
09 19.08 Ю 4 20 км 9/9 1000 м
[Sc]
+19.2 +14.5 74 +21 +21 комфорт 1009.9 1005.2
12 19.08 Ю 5 20 км 9/4 1000 м
[Sc Ac trans Ci fib]
+23.0 +16.6 67 +28 +29 душно 1010.9 1006.2
15 19.08 З 2
{10}
10 км в посл. час ливневой дождь 9/5 600 м
[Cb calv Ac trans]
+18.5 +18.3 99 +20 +21 1012.9 1008.1 3
18 19.08 ЮЗ 2
{10}
20 км {ливн. осадки} 10/3 600 м
[Cu Sc Ac trans Ci fib]
+18.0 +16.3 90 +19 +19 1014.4 1009.6 +24.1 3
21 19.08 З 2 20 км 10/3 600 м
[Sc Ac trans Ci fib]
+17.1 +14.2 83 +17 +17 1015.8 1011.0
00 20.08 З 2 20 км 8/0
[Ci fib]
+15.7 +14.5 93 +16 +16 1017.3 1012.5
03 20.08 Ю 1 10 км туман поземный 4/1 300 м
[St Ci fib]
+9.3 +8.8 97 +9 +9 1018.9 1013.9 +9.1
06 20.08 ЮЗ 3 20 км 3/3 300 м
[St Ci fib]
+17.4 +15.3 87 +17 +19 1020.2 1015.4 +9.1
09 20.08 Ю 4 20 км 9/3 600 м
[Cu med, cong Ci fib]
+19.0 +14.7 76 +20 +24 1020.9 1016.1
12 20.08 Ю 4 20 км 3/1 600 м
[Cu med, cong Ci fib]
+22.0 +13.8 60 +25 +30 комфорт 1021.2 1016.4
15 20.08 ЮЗ 3 20 км 10/4 600 м
[Cb calv Ac trans Ci fib]
+21.8 +14.2 62 +25 +25 комфорт 1021.6 1016.8
18 20.08 ЮЗ 2 20 км 3/0
[Ac trans Ci fib]
+18.8 +12.9 69 +20 +20 1022.5 1017.7 +22.9
21 20.08 ЮВ 1 10 км туман поземный 3/0
[Ci fib]
+10.8 +10.8 100 +10 +10 1023.7 1018.7
00 21.08 штиль 0 10 км туман поземный 4/0
[Ac trans Ci fib]
+10.2 +10.2 100 +9 +9 1024.2 1019.2
03 21.08 В 1 10 км туман поземный 8/3 1000 м
[Sc Ac trans Ci fib]
+9.8 +9.8 100 +9 +9 1024.8 1019.8 +9.5
06 21.08 ЮВ 2 20 км 9/9 1000 м
[Sc Ac trans]
+16.0 +14.6 91 +16 +16 1024.7 1019.8 +9.5
09 21.08 Ю 2 20 км 9/9 1000 м
[Sc Ac trans]
+17.2 +14.8 86 +18 +18 1024.3 1019.5
12 21.08 ЮЗ 2 10 км слаб. ливневой дождь 10/10 600 м
[Cb cap]
+16.0 +14.4 90 +16 +16 1023.7 1018.8

 

Местоположение метеостанции Гдов (Псковская область, Россия): широта 58.73 долгота 27.83 высота над уровнем моря 41 м.

В архиве по умолчанию представлена погода в Гдове за последнюю неделю. Архивные данные за месяц целиком и за предыдущие месяцы, начиная с января 2011 года, Вы можете получить, выбрав интересующий диапазон дат из раскрывающегося списка и нажав кнопку "Ввод!".


*Определитесь, кто Вы:
робот инопланетянин человек

Внимание! Время в таблицах - всемирное. Для получения местного времени необходимо прибавить поправку, которая равна 3 ч.

Смотрите также архив погоды в соседних городах и на ближайших метеорологических станциях:

Погода в Сланцах (Ленинградская область, Россия) (46 км)
Погода в Тиирикое (Эстония) (53 км)
Погода в Йохви (Эстония) (72 км)
Погода в Нарве (Эстония) (73 км)
Погода в Тарту (Эстония) (80 км)
Погода в Йыгеве (Эстония) (81 км)
Погода в Кингисеппе (Ленинградская область, Россия) (84 км)
Погода в Стругах-Красных (Псковская область, Россия) (90 км)
Погода в Вяйке-Маарье (Эстония) (102 км)
Погода в Пскове (Псковская область, Россия) (105 км)

Пояснения к столбцам:

Ветер - указаны скорость ветра в м/с - средняя за 10 мин, порывы в срок и между сроками (в фигурных скобках) и направление, откуда дует ветер: С - северный, СВ - северо-восточный, В - восточный, ЮВ - юго-восточный, Ю - южный, ЮЗ - юго-западный, З - западный, СЗ - северо-западный.
Видимость - горизонтальная дальность видимости в метрах или километрах. При видимости от 1 до 10 км при отсутствии осадков обычно наблюдается дымка, при ухудшении видимости до 1 км и менее - туман. В сухую погоду видимость может ухудшаться дымом, пылью или мглою.
Явления - указаны атмосферные явления, наблюдавшиеся в срок или в последний час перед сроком; фигурными скобками обозначены явления, наблюдавшиеся между сроками (за 1-3 часа до срока); квадратными скобками обозначены град или гололедные отложения с указанием их диаметра в мм.
Облачность - указаны через наклонную черту общая и нижняя облачность в баллах и высота нижней границы облаков в метрах; квадратными скобками обозначены формы облаков: Ci - перистые, Cs - перисто-слоистые, Cc - перисто-кучевые, Ac - высококучевые, As - высокослоистые, Sc - слоисто-кучевые, Ns - слоисто-дождевые, Cu - кучевые, Cb - кучево-дождевые. Подробнее классификацию облаков см. в Атласе облаков (PDF).
T - Температура воздуха - температура, измеренная на высоте 2 м над землей.
Td - Температура точки росы - температура, при понижении до которой содержащийся в воздухе водяной пар достигнет насыщения.
f - Относительная влажность воздуха - влажноcть воздуха, измеренная на высоте 2 м над землей.
Te - Эффективная температура - температура, которую ощущает одетый по сезону человек в тени. Характеристика душности погоды. При расчете учитывается влияние влажности воздуха и скорости ветра на теплоощущения человека.
Tes - Эффективная температура на солнце - температура, которую ощущает человек, с поправкой на солнечный нагрев. Характеристика знойности погоды. Зависит от высоты солнца над горизонтом, облачности и скорости ветра. Ночью, в пасмурную погоду, а также при ветре 12 м/с и более поправка равна нулю.
P - Атмосферное давление - приведенное к уровню моря атмосферное давление.
Po - Атмосферное давление - измеренное на уровне метеостанции атмосферное давление.
Tmin - Минимальная температура - минимум температуры воздуха на высоте 2 м над землей.
Tmax - Максимальная температура - максимум температуры воздуха на высоте 2 м над землей.
R - Количество осадков - Количество выпавших осадков за период времени, мм. При наведении курсора мыши на число - период времени, за который выпало указанное количество осадков.
R24 - Количество осадков - Количество выпавших осадков за 24 часа, мм.
S - Снежный покров - Высота снежного покрова, см. При наведении курсора мыши на число - состояние снежного покрова и степень покрытия местности в баллах.